contact:dominique.lefevre@mio.osupytheas.fr, maurice.libes@osupytheas.fr, didier.mallarino@osupytheas.fr
Project:EMSO http://www.emso-fr.org/EMSO-France
Depth: 2436.0 m
Title:EMSO Ligure Ouest : Data MII capteur MICROCAT
DateTime_Computer,Latitude,Longitude,Temperature,Conductivity,Pressure,DateTime_Instrument
DateTime_Computer,Latitude,Longitude,degC,S m-1,dbar,DateTime_Instrument
2022-07-09T00:01:53Z,42.805,6.029,13.3018,4.60051,2470.577,2022-7-09T02:03:38Z
2022-07-09T00:04:56Z,42.805,6.029,13.3020,4.60063,2470.591,2022-7-09T02:06:41Z
2022-07-09T00:07:59Z,42.805,6.029,13.3019,4.60066,2470.553,2022-7-09T02:09:45Z
2022-07-09T00:11:02Z,42.805,6.029,13.3015,4.60069,2470.577,2022-7-09T02:12:48Z
2022-07-09T00:14:05Z,42.805,6.029,13.3023,4.60064,2470.544,2022-7-09T02:15:51Z
2022-07-09T00:17:08Z,42.805,6.029,13.3014,4.60068,2470.6,2022-7-09T02:18:54Z
2022-07-09T00:20:11Z,42.805,6.029,13.3018,4.60070,2470.563,2022-7-09T02:21:57Z
2022-07-09T00:23:14Z,42.805,6.029,13.3015,4.60057,2470.577,2022-7-09T02:25:00Z
2022-07-09T00:26:18Z,42.805,6.029,13.3013,4.60058,2470.577,2022-7-09T02:28:03Z
2022-07-09T00:29:21Z,42.805,6.029,13.3014,4.60066,2470.577,2022-7-09T02:31:06Z
2022-07-09T00:32:24Z,42.805,6.029,13.3014,4.60070,2470.6,2022-7-09T02:34:09Z
2022-07-09T00:35:27Z,42.805,6.029,13.3007,4.60049,2470.577,2022-7-09T02:37:13Z
2022-07-09T00:38:30Z,42.805,6.029,13.3008,4.60044,2470.577,2022-7-09T02:40:16Z
2022-07-09T00:41:33Z,42.805,6.029,13.3011,4.60046,2470.6,2022-7-09T02:43:19Z
2022-07-09T00:44:36Z,42.805,6.029,13.3024,4.60064,2470.614,2022-7-09T02:46:22Z
2022-07-09T00:47:39Z,42.805,6.029,13.3021,4.60076,2470.553,2022-7-09T02:49:25Z
2022-07-09T00:50:42Z,42.805,6.029,13.3021,4.60076,2470.586,2022-7-09T02:52:28Z
2022-07-09T00:53:46Z,42.805,6.029,13.3021,4.60081,2470.591,2022-7-09T02:55:31Z
2022-07-09T00:56:49Z,42.805,6.029,13.3013,4.60053,2470.6,2022-7-09T02:58:34Z
2022-07-09T00:59:52Z,42.805,6.029,13.3015,4.60057,2470.637,2022-7-09T03:01:37Z
2022-07-09T01:02:55Z,42.805,6.029,13.3014,4.60060,2470.591,2022-7-09T03:04:41Z
2022-07-09T01:05:58Z,42.805,6.029,13.3020,4.60067,2470.563,2022-7-09T03:07:44Z
2022-07-09T01:09:01Z,42.805,6.029,13.3017,4.60057,2470.577,2022-7-09T03:10:47Z
2022-07-09T01:12:04Z,42.805,6.029,13.3024,4.60072,2470.6,2022-7-09T03:13:50Z
2022-07-09T01:15:07Z,42.805,6.029,13.3022,4.60077,2470.637,2022-7-09T03:16:53Z
2022-07-09T01:18:10Z,42.805,6.029,13.3013,4.60057,2470.637,2022-7-09T03:19:56Z
2022-07-09T01:21:14Z,42.805,6.029,13.3016,4.60071,2470.577,2022-7-09T03:22:59Z
2022-07-09T01:24:17Z,42.805,6.029,13.3017,4.60074,2470.6,2022-7-09T03:26:02Z
2022-07-09T01:27:20Z,42.805,6.029,13.3021,4.60064,2470.591,2022-7-09T03:29:06Z
2022-07-09T01:30:23Z,42.805,6.029,13.3019,4.60074,2470.591,2022-7-09T03:32:09Z
2022-07-09T01:33:26Z,42.805,6.029,13.3034,4.60083,2470.591,2022-7-09T03:35:12Z
2022-07-09T01:36:29Z,42.805,6.029,13.3014,4.60077,2470.577,2022-7-09T03:38:15Z
2022-07-09T01:39:32Z,42.805,6.029,13.3013,4.60073,2470.6,2022-7-09T03:41:18Z
2022-07-09T01:42:35Z,42.805,6.029,13.3018,4.60069,2470.624,2022-7-09T03:44:21Z
2022-07-09T01:45:39Z,42.805,6.029,13.3015,4.60094,2470.591,2022-7-09T03:47:24Z
2022-07-09T01:48:42Z,42.805,6.029,13.3015,4.60059,2470.577,2022-7-09T03:50:27Z
2022-07-09T01:51:45Z,42.805,6.029,13.3013,4.60058,2470.661,2022-7-09T03:53:30Z
2022-07-09T01:54:48Z,42.805,6.029,13.3021,4.60084,2470.624,2022-7-09T03:56:34Z
2022-07-09T01:57:51Z,42.805,6.029,13.3019,4.60089,2470.637,2022-7-09T03:59:37Z
2022-07-09T02:00:54Z,42.805,6.029,13.3023,4.60079,2470.614,2022-7-09T04:02:40Z
2022-07-09T02:03:57Z,42.805,6.029,13.3015,4.60070,2470.6,2022-7-09T04:05:43Z
2022-07-09T02:07:00Z,42.805,6.029,13.3015,4.60072,2470.624,2022-7-09T04:08:46Z
2022-07-09T02:10:03Z,42.805,6.029,13.3019,4.60087,2470.6,2022-7-09T04:11:49Z
2022-07-09T02:13:07Z,42.805,6.029,13.3011,4.60055,2470.577,2022-7-09T04:14:52Z
2022-07-09T02:16:10Z,42.805,6.029,13.3014,4.60069,2470.624,2022-7-09T04:17:55Z
2022-07-09T02:19:13Z,42.805,6.029,13.3017,4.60057,2470.577,2022-7-09T04:20:59Z
2022-07-09T02:22:16Z,42.805,6.029,13.3017,4.60062,2470.6,2022-7-09T04:24:02Z
2022-07-09T02:25:19Z,42.805,6.029,13.3023,4.60079,2470.646,2022-7-09T04:27:05Z
2022-07-09T02:28:22Z,42.805,6.029,13.3022,4.60076,2470.637,2022-7-09T04:30:08Z
2022-07-09T02:31:25Z,42.805,6.029,13.3026,4.60084,2470.624,2022-7-09T04:33:11Z
2022-07-09T02:34:28Z,42.805,6.029,13.3018,4.60081,2470.6,2022-7-09T04:36:14Z
2022-07-09T02:37:32Z,42.805,6.029,13.3021,4.60092,2470.624,2022-7-09T04:39:17Z
2022-07-09T02:40:35Z,42.805,6.029,13.3021,4.60076,2470.6,2022-7-09T04:42:20Z
2022-07-09T02:43:38Z,42.805,6.029,13.3019,4.60074,2470.6,2022-7-09T04:45:23Z
2022-07-09T02:46:41Z,42.805,6.029,13.3016,4.60070,2470.614,2022-7-09T04:48:27Z
2022-07-09T02:49:44Z,42.805,6.029,13.3011,4.60077,2470.6,2022-7-09T04:51:30Z
2022-07-09T02:52:47Z,42.805,6.029,13.3029,4.60055,2470.637,2022-7-09T04:54:33Z
2022-07-09T02:55:50Z,42.805,6.029,13.3019,4.60075,2470.6,2022-7-09T04:57:36Z
2022-07-09T02:58:53Z,42.805,6.029,13.3014,4.60086,2470.614,2022-7-09T05:00:39Z
2022-07-09T03:01:56Z,42.805,6.029,13.3020,4.60077,2470.637,2022-7-09T05:03:42Z
2022-07-09T03:05:00Z,42.805,6.029,13.3016,4.60075,2470.614,2022-7-09T05:06:45Z
2022-07-09T03:08:03Z,42.805,6.029,13.3017,4.60069,2470.637,2022-7-09T05:09:48Z
2022-07-09T03:11:06Z,42.805,6.029,13.3023,4.60074,2470.614,2022-7-09T05:12:51Z
2022-07-09T03:14:09Z,42.805,6.029,13.3020,4.60064,2470.624,2022-7-09T05:15:55Z
2022-07-09T03:17:12Z,42.805,6.029,13.3024,4.60089,2470.614,2022-7-09T05:18:58Z
2022-07-09T03:20:15Z,42.805,6.029,13.3019,4.60082,2470.577,2022-7-09T05:22:01Z
2022-07-09T03:23:18Z,42.805,6.029,13.3017,4.60077,2470.6,2022-7-09T05:25:04Z
2022-07-09T03:26:21Z,42.805,6.029,13.3016,4.60088,2470.6,2022-7-09T05:28:07Z
2022-07-09T03:29:24Z,42.805,6.029,13.3022,4.60061,2470.624,2022-7-09T05:31:10Z
2022-07-09T03:32:28Z,42.805,6.029,13.3015,4.60086,2470.591,2022-7-09T05:34:13Z
2022-07-09T03:35:31Z,42.805,6.029,13.3020,4.60087,2470.6,2022-7-09T05:37:16Z
2022-07-09T03:38:34Z,42.805,6.029,13.3019,4.60072,2470.6,2022-7-09T05:40:20Z
2022-07-09T03:41:37Z,42.805,6.029,13.3014,4.60081,2470.591,2022-7-09T05:43:23Z
2022-07-09T03:44:40Z,42.805,6.029,13.3024,4.60090,2470.6,2022-7-09T05:46:26Z
2022-07-09T03:47:43Z,42.805,6.029,13.3015,4.60064,2470.624,2022-7-09T05:49:29Z
2022-07-09T03:50:46Z,42.805,6.029,13.3009,4.60064,2470.577,2022-7-09T05:52:32Z
2022-07-09T03:53:49Z,42.805,6.029,13.3021,4.60087,2470.6,2022-7-09T05:55:35Z
2022-07-09T03:56:53Z,42.805,6.029,13.3027,4.60082,2470.6,2022-7-09T05:58:38Z
2022-07-09T03:59:56Z,42.805,6.029,13.3025,4.60074,2470.6,2022-7-09T06:01:41Z
2022-07-09T04:02:59Z,42.805,6.029,13.3027,4.60098,2470.6,2022-7-09T06:04:44Z
2022-07-09T04:06:02Z,42.805,6.029,13.3027,4.60078,2470.6,2022-7-09T06:07:48Z
2022-07-09T04:09:05Z,42.805,6.029,13.3018,4.60064,2470.591,2022-7-09T06:10:51Z
2022-07-09T04:12:08Z,42.805,6.029,13.3011,4.60083,2470.591,2022-7-09T06:13:54Z
2022-07-09T04:15:11Z,42.805,6.029,13.3024,4.60075,2470.577,2022-7-09T06:16:57Z
2022-07-09T04:18:14Z,42.805,6.029,13.3029,4.60089,2470.637,2022-7-09T06:20:00Z
2022-07-09T04:21:17Z,42.805,6.029,13.3017,4.60075,2470.614,2022-7-09T06:23:03Z
2022-07-09T04:24:21Z,42.805,6.029,13.3020,4.60087,2470.591,2022-7-09T06:26:06Z
2022-07-09T04:27:24Z,42.805,6.029,13.3018,4.60073,2470.6,2022-7-09T06:29:09Z
2022-07-09T04:30:27Z,42.805,6.029,13.3019,4.60084,2470.577,2022-7-09T06:32:13Z
2022-07-09T04:33:30Z,42.805,6.029,13.3025,4.60092,2470.6,2022-7-09T06:35:16Z
2022-07-09T04:36:33Z,42.805,6.029,13.3020,4.60073,2470.6,2022-7-09T06:38:19Z
2022-07-09T04:39:36Z,42.805,6.029,13.3019,4.60076,2470.577,2022-7-09T06:41:22Z
2022-07-09T04:42:39Z,42.805,6.029,13.3020,4.60073,2470.591,2022-7-09T06:44:25Z
2022-07-09T04:45:42Z,42.805,6.029,13.3019,4.60084,2470.567,2022-7-09T06:47:28Z
2022-07-09T04:48:46Z,42.805,6.029,13.3031,4.60094,2470.591,2022-7-09T06:50:31Z
2022-07-09T04:51:49Z,42.805,6.029,13.3031,4.60059,2470.6,2022-7-09T06:53:34Z
2022-07-09T04:54:52Z,42.805,6.029,13.3011,4.60068,2470.6,2022-7-09T06:56:37Z
2022-07-09T04:57:55Z,42.805,6.029,13.3021,4.60070,2470.591,2022-7-09T06:59:41Z
2022-07-09T05:00:58Z,42.805,6.029,13.3026,4.60059,2470.591,2022-7-09T07:02:44Z
2022-07-09T05:04:01Z,42.805,6.029,13.3040,4.60072,2470.577,2022-7-09T07:05:47Z
2022-07-09T05:07:04Z,42.805,6.029,13.3027,4.60087,2470.614,2022-7-09T07:08:50Z
2022-07-09T05:10:07Z,42.805,6.029,13.3026,4.60093,2470.577,2022-7-09T07:11:53Z
2022-07-09T05:13:10Z,42.805,6.029,13.3031,4.60077,2470.577,2022-7-09T07:14:56Z
2022-07-09T05:16:14Z,42.805,6.029,13.3032,4.60076,2470.6,2022-7-09T07:17:59Z
2022-07-09T05:19:17Z,42.805,6.029,13.3032,4.60089,2470.577,2022-7-09T07:21:02Z
2022-07-09T05:22:20Z,42.805,6.029,13.3039,4.60104,2470.567,2022-7-09T07:24:05Z
2022-07-09T05:25:23Z,42.805,6.029,13.3030,4.60100,2470.553,2022-7-09T07:27:09Z
2022-07-09T05:28:26Z,42.805,6.029,13.3023,4.60092,2470.6,2022-7-09T07:30:12Z
2022-07-09T05:31:29Z,42.805,6.029,13.3035,4.60075,2470.567,2022-7-09T07:33:15Z
2022-07-09T05:34:32Z,42.805,6.029,13.3018,4.60083,2470.614,2022-7-09T07:36:18Z
2022-07-09T05:37:35Z,42.805,6.029,13.3023,4.60092,2470.553,2022-7-09T07:39:21Z
2022-07-09T05:40:38Z,42.805,6.029,13.3029,4.60092,2470.544,2022-7-09T07:42:24Z
2022-07-09T05:43:42Z,42.805,6.029,13.3036,4.60094,2470.591,2022-7-09T07:45:27Z
2022-07-09T05:46:45Z,42.805,6.029,13.3029,4.60114,2470.591,2022-7-09T07:48:30Z
2022-07-09T05:49:48Z,42.805,6.029,13.3025,4.60107,2470.553,2022-7-09T07:51:34Z
2022-07-09T05:52:51Z,42.805,6.029,13.3021,4.60082,2470.553,2022-7-09T07:54:37Z
2022-07-09T05:55:54Z,42.805,6.029,13.3034,4.60060,2470.591,2022-7-09T07:57:40Z
2022-07-09T05:58:57Z,42.805,6.029,13.3024,4.60074,2470.53,2022-7-09T08:00:43Z
2022-07-09T06:02:00Z,42.805,6.029,13.3026,4.60077,2470.553,2022-7-09T08:03:46Z
2022-07-09T06:05:03Z,42.805,6.029,13.3011,4.60062,2470.567,2022-7-09T08:06:49Z
2022-07-09T06:08:07Z,42.805,6.029,13.3024,4.60087,2470.553,2022-7-09T08:09:52Z
2022-07-09T06:11:10Z,42.805,6.029,13.3033,4.60096,2470.567,2022-7-09T08:12:55Z
2022-07-09T06:14:13Z,42.805,6.029,13.3032,4.60097,2470.544,2022-7-09T08:15:58Z
2022-07-09T06:17:16Z,42.805,6.029,13.3035,4.60052,2470.567,2022-7-09T08:19:02Z
2022-07-09T06:20:19Z,42.805,6.029,13.3022,4.60079,2470.544,2022-7-09T08:22:05Z
2022-07-09T06:23:22Z,42.805,6.029,13.3034,4.60075,2470.53,2022-7-09T08:25:08Z
2022-07-09T06:26:25Z,42.805,6.029,13.3027,4.60097,2470.544,2022-7-09T08:28:11Z
2022-07-09T06:29:28Z,42.805,6.029,13.3026,4.60090,2470.52,2022-7-09T08:31:14Z
2022-07-09T06:32:31Z,42.805,6.029,13.3031,4.60069,2470.507,2022-7-09T08:34:17Z
2022-07-09T06:35:35Z,42.805,6.029,13.3026,4.60094,2470.53,2022-7-09T08:37:20Z
2022-07-09T06:38:38Z,42.805,6.029,13.3034,4.60069,2470.544,2022-7-09T08:40:23Z
2022-07-09T06:41:41Z,42.805,6.029,13.3020,4.60067,2470.544,2022-7-09T08:43:27Z
2022-07-09T06:44:44Z,42.805,6.029,13.3048,4.60071,2470.53,2022-7-09T08:46:30Z
2022-07-09T06:47:47Z,42.805,6.029,13.3009,4.60055,2470.47,2022-7-09T08:49:33Z
2022-07-09T06:50:50Z,42.805,6.029,13.3017,4.60066,2470.507,2022-7-09T08:52:36Z
2022-07-09T06:53:53Z,42.805,6.029,13.3026,4.60088,2470.507,2022-7-09T08:55:39Z
2022-07-09T06:56:56Z,42.805,6.029,13.3024,4.60069,2470.544,2022-7-09T08:58:42Z
2022-07-09T07:00:00Z,42.805,6.029,13.3027,4.60094,2470.507,2022-7-09T09:01:45Z
2022-07-09T07:03:03Z,42.805,6.029,13.3038,4.60084,2470.53,2022-7-09T09:04:48Z
2022-07-09T07:06:06Z,42.805,6.029,13.3021,4.60079,2470.544,2022-7-09T09:07:51Z
2022-07-09T07:09:09Z,42.805,6.029,13.3037,4.60129,2470.567,2022-7-09T09:10:55Z
2022-07-09T07:12:12Z,42.805,6.029,13.3048,4.60106,2470.507,2022-7-09T09:13:58Z
2022-07-09T07:15:15Z,42.805,6.029,13.3027,4.60099,2470.53,2022-7-09T09:17:01Z
2022-07-09T07:18:18Z,42.805,6.029,13.3039,4.60099,2470.52,2022-7-09T09:20:04Z
2022-07-09T07:21:21Z,42.805,6.029,13.3016,4.60074,2470.544,2022-7-09T09:23:07Z
2022-07-09T07:24:24Z,42.805,6.029,13.3036,4.60106,2470.52,2022-7-09T09:26:10Z
2022-07-09T07:27:28Z,42.805,6.029,13.3044,4.60103,2470.483,2022-7-09T09:29:13Z
2022-07-09T07:30:31Z,42.805,6.029,13.3024,4.60106,2470.507,2022-7-09T09:32:16Z
2022-07-09T07:33:34Z,42.805,6.029,13.3026,4.60090,2470.497,2022-7-09T09:35:19Z
2022-07-09T07:36:37Z,42.805,6.029,13.3027,4.60100,2470.46,2022-7-09T09:38:23Z
2022-07-09T07:39:40Z,42.805,6.029,13.3029,4.60114,2470.483,2022-7-09T09:41:26Z
2022-07-09T07:42:43Z,42.805,6.029,13.3024,4.60099,2470.507,2022-7-09T09:44:29Z
2022-07-09T07:45:46Z,42.805,6.029,13.3025,4.60110,2470.483,2022-7-09T09:47:32Z
2022-07-09T07:48:49Z,42.805,6.029,13.3028,4.60110,2470.52,2022-7-09T09:50:35Z
2022-07-09T07:51:52Z,42.805,6.029,13.3015,4.60105,2470.497,2022-7-09T09:53:38Z
2022-07-09T07:54:56Z,42.805,6.029,13.3040,4.60088,2470.497,2022-7-09T09:56:41Z
2022-07-09T07:57:59Z,42.805,6.029,13.3047,4.60067,2470.53,2022-7-09T09:59:44Z
2022-07-09T08:01:02Z,42.805,6.029,13.3037,4.60097,2470.544,2022-7-09T10:02:48Z
2022-07-09T08:04:05Z,42.805,6.029,13.3028,4.60081,2470.483,2022-7-09T10:05:51Z
2022-07-09T08:07:08Z,42.805,6.029,13.3031,4.60087,2470.52,2022-7-09T10:08:54Z
2022-07-09T08:10:11Z,42.805,6.029,13.3035,4.60112,2470.474,2022-7-09T10:11:57Z
2022-07-09T08:13:14Z,42.805,6.029,13.3032,4.60096,2470.474,2022-7-09T10:15:00Z
2022-07-09T08:16:17Z,42.805,6.029,13.3031,4.60090,2470.46,2022-7-09T10:18:03Z
2022-07-09T08:19:21Z,42.805,6.029,13.3046,4.60102,2470.507,2022-7-09T10:21:06Z
2022-07-09T08:22:24Z,42.805,6.029,13.3036,4.60097,2470.483,2022-7-09T10:24:09Z
2022-07-09T08:25:27Z,42.805,6.029,13.3044,4.60112,2470.497,2022-7-09T10:27:12Z
2022-07-09T08:28:30Z,42.805,6.029,13.3028,4.60094,2470.446,2022-7-09T10:30:16Z
2022-07-09T08:31:33Z,42.805,6.029,13.3029,4.60068,2470.483,2022-7-09T10:33:19Z
2022-07-09T08:34:36Z,42.805,6.029,13.3034,4.60105,2470.46,2022-7-09T10:36:22Z
2022-07-09T08:37:39Z,42.805,6.029,13.3038,4.60121,2470.46,2022-7-09T10:39:25Z
2022-07-09T08:40:42Z,42.805,6.029,13.3021,4.60116,2470.474,2022-7-09T10:42:28Z
2022-07-09T08:43:45Z,42.805,6.029,13.3034,4.60093,2470.474,2022-7-09T10:45:31Z
2022-07-09T08:46:49Z,42.805,6.029,13.3047,4.60117,2470.483,2022-7-09T10:48:34Z
2022-07-09T08:49:52Z,42.805,6.029,13.3046,4.60099,2470.474,2022-7-09T10:51:37Z
2022-07-09T08:52:55Z,42.805,6.029,13.3019,4.60080,2470.483,2022-7-09T10:54:41Z
2022-07-09T08:55:58Z,42.805,6.029,13.3024,4.60062,2470.46,2022-7-09T10:57:44Z
2022-07-09T08:59:01Z,42.805,6.029,13.3035,4.60098,2470.46,2022-7-09T11:00:47Z
2022-07-09T09:02:04Z,42.805,6.029,13.3026,4.60098,2470.46,2022-7-09T11:03:50Z
2022-07-09T09:05:07Z,42.805,6.029,13.3041,4.60099,2470.474,2022-7-09T11:06:53Z
2022-07-09T09:08:10Z,42.805,6.029,13.3022,4.60111,2470.474,2022-7-09T11:09:56Z
2022-07-09T09:11:14Z,42.805,6.029,13.3012,4.60106,2470.46,2022-7-09T11:12:59Z
2022-07-09T09:14:17Z,42.805,6.029,13.3034,4.60092,2470.46,2022-7-09T11:16:02Z
2022-07-09T09:17:20Z,42.805,6.029,13.3032,4.60094,2470.46,2022-7-09T11:19:06Z
2022-07-09T09:20:23Z,42.805,6.029,13.3034,4.60100,2470.474,2022-7-09T11:22:09Z
2022-07-09T09:23:26Z,42.805,6.029,13.3033,4.60084,2470.413,2022-7-09T11:25:12Z
2022-07-09T09:26:29Z,42.805,6.029,13.3026,4.60098,2470.437,2022-7-09T11:28:15Z
2022-07-09T09:29:32Z,42.805,6.029,13.3026,4.60078,2470.46,2022-7-09T11:31:18Z
2022-07-09T09:32:35Z,42.805,6.029,13.3011,4.60055,2470.46,2022-7-09T11:34:21Z
2022-07-09T09:35:39Z,42.805,6.029,13.3036,4.60084,2470.497,2022-7-09T11:37:24Z
2022-07-09T09:38:42Z,42.805,6.029,13.3031,4.60074,2470.497,2022-7-09T11:40:27Z
2022-07-09T09:41:45Z,42.805,6.029,13.3027,4.60094,2470.46,2022-7-09T11:43:31Z
2022-07-09T09:44:48Z,42.805,6.029,13.3036,4.60073,2470.46,2022-7-09T11:46:34Z
2022-07-09T09:47:51Z,42.805,6.029,13.3031,4.60097,2470.46,2022-7-09T11:49:37Z
2022-07-09T09:50:54Z,42.805,6.029,13.3038,4.60108,2470.46,2022-7-09T11:52:40Z
2022-07-09T09:53:57Z,42.805,6.029,13.3027,4.60088,2470.474,2022-7-09T11:55:43Z
2022-07-09T09:57:00Z,42.805,6.029,13.3029,4.60087,2470.497,2022-7-09T11:58:46Z
2022-07-09T10:00:04Z,42.805,6.029,13.3037,4.60097,2470.46,2022-7-09T12:01:49Z
2022-07-09T10:03:07Z,42.805,6.029,13.3021,4.60084,2470.474,2022-7-09T12:04:52Z
2022-07-09T10:06:10Z,42.805,6.029,13.3033,4.60104,2470.46,2022-7-09T12:07:55Z
2022-07-09T10:09:13Z,42.805,6.029,13.3039,4.60087,2470.474,2022-7-09T12:10:59Z
2022-07-09T10:12:16Z,42.805,6.029,13.3027,4.60102,2470.45,2022-7-09T12:14:02Z
2022-07-09T10:15:19Z,42.805,6.029,13.3027,4.60099,2470.474,2022-7-09T12:17:05Z
2022-07-09T10:18:22Z,42.805,6.029,13.3024,4.60074,2470.46,2022-7-09T12:20:08Z
2022-07-09T10:21:25Z,42.805,6.029,13.3034,4.60080,2470.46,2022-7-09T12:23:11Z
2022-07-09T10:24:28Z,42.805,6.029,13.3023,4.60092,2470.437,2022-7-09T12:26:14Z
2022-07-09T10:27:32Z,42.805,6.029,13.3034,4.60106,2470.483,2022-7-09T12:29:17Z
2022-07-09T10:30:35Z,42.805,6.029,13.3030,4.60104,2470.45,2022-7-09T12:32:20Z
2022-07-09T10:33:38Z,42.805,6.029,13.3024,4.60107,2470.483,2022-7-09T12:35:24Z
2022-07-09T10:36:41Z,42.805,6.029,13.3031,4.60086,2470.474,2022-7-09T12:38:27Z
2022-07-09T10:39:44Z,42.805,6.029,13.3031,4.60099,2470.46,2022-7-09T12:41:30Z
2022-07-09T10:42:47Z,42.805,6.029,13.3027,4.60094,2470.483,2022-7-09T12:44:33Z
2022-07-09T10:45:50Z,42.805,6.029,13.3041,4.60081,2470.497,2022-7-09T12:47:36Z
2022-07-09T10:48:53Z,42.805,6.029,13.3036,4.60081,2470.437,2022-7-09T12:50:39Z
2022-07-09T10:51:57Z,42.805,6.029,13.3029,4.60099,2470.483,2022-7-09T12:53:42Z
2022-07-09T10:55:00Z,42.805,6.029,13.3019,4.60092,2470.474,2022-7-09T12:56:45Z
2022-07-09T10:58:03Z,42.805,6.029,13.3022,4.60067,2470.497,2022-7-09T12:59:49Z
2022-07-09T11:01:06Z,42.805,6.029,13.3025,4.60078,2470.507,2022-7-09T13:02:52Z
2022-07-09T11:04:09Z,42.805,6.029,13.3030,4.60085,2470.46,2022-7-09T13:05:55Z
2022-07-09T11:07:12Z,42.805,6.029,13.3029,4.60088,2470.483,2022-7-09T13:08:58Z
2022-07-09T11:10:15Z,42.805,6.029,13.3043,4.60075,2470.46,2022-7-09T13:12:01Z
2022-07-09T11:13:18Z,42.805,6.029,13.3023,4.60084,2470.497,2022-7-09T13:15:04Z
2022-07-09T11:16:22Z,42.805,6.029,13.3022,4.60094,2470.544,2022-7-09T13:18:07Z
2022-07-09T11:19:25Z,42.805,6.029,13.3021,4.60084,2470.507,2022-7-09T13:21:10Z
2022-07-09T11:22:28Z,42.805,6.029,13.3028,4.60067,2470.483,2022-7-09T13:24:14Z
2022-07-09T11:25:31Z,42.805,6.029,13.3021,4.60081,2470.483,2022-7-09T13:27:17Z
2022-07-09T11:28:34Z,42.805,6.029,13.3033,4.60095,2470.507,2022-7-09T13:30:20Z
2022-07-09T11:31:37Z,42.805,6.029,13.3013,4.60089,2470.46,2022-7-09T13:33:23Z
2022-07-09T11:34:40Z,42.805,6.029,13.3040,4.60096,2470.52,2022-7-09T13:36:26Z
2022-07-09T11:37:43Z,42.805,6.029,13.3039,4.60098,2470.483,2022-7-09T13:39:29Z
2022-07-09T11:40:47Z,42.805,6.029,13.3034,4.60100,2470.497,2022-7-09T13:42:32Z
2022-07-09T11:43:50Z,42.805,6.029,13.3019,4.60104,2470.507,2022-7-09T13:45:35Z
2022-07-09T11:46:53Z,42.805,6.029,13.3009,4.60063,2470.474,2022-7-09T13:48:38Z
2022-07-09T11:49:56Z,42.805,6.029,13.3015,4.60057,2470.497,2022-7-09T13:51:42Z
2022-07-09T11:52:59Z,42.805,6.029,13.3011,4.60057,2470.46,2022-7-09T13:54:45Z
2022-07-09T11:56:02Z,42.805,6.029,13.3024,4.60072,2470.483,2022-7-09T13:57:48Z
2022-07-09T11:59:05Z,42.805,6.029,13.3029,4.60081,2470.507,2022-7-09T14:00:51Z
2022-07-09T12:02:08Z,42.805,6.029,13.3029,4.60078,2470.52,2022-7-09T14:03:54Z
2022-07-09T12:05:11Z,42.805,6.029,13.3022,4.60084,2470.52,2022-7-09T14:06:57Z
2022-07-09T12:08:15Z,42.805,6.029,13.3031,4.60092,2470.483,2022-7-09T14:10:00Z
2022-07-09T12:11:18Z,42.805,6.029,13.3019,4.60093,2470.507,2022-7-09T14:13:03Z
2022-07-09T12:14:21Z,42.805,6.029,13.3020,4.60087,2470.497,2022-7-09T14:16:07Z
2022-07-09T12:17:24Z,42.805,6.029,13.3014,4.60089,2470.483,2022-7-09T14:19:10Z
2022-07-09T12:20:27Z,42.805,6.029,13.3018,4.60094,2470.52,2022-7-09T14:22:13Z
2022-07-09T12:23:30Z,42.805,6.029,13.3028,4.60086,2470.507,2022-7-09T14:25:16Z
2022-07-09T12:26:33Z,42.805,6.029,13.3021,4.60081,2470.507,2022-7-09T14:28:19Z
2022-07-09T12:29:36Z,42.805,6.029,13.3021,4.60081,2470.46,2022-7-09T14:31:22Z
2022-07-09T12:32:40Z,42.805,6.029,13.3031,4.60092,2470.53,2022-7-09T14:34:25Z
2022-07-09T12:35:43Z,42.805,6.029,13.3033,4.60091,2470.52,2022-7-09T14:37:28Z
2022-07-09T12:38:46Z,42.805,6.029,13.3031,4.60082,2470.483,2022-7-09T14:40:32Z
2022-07-09T12:41:49Z,42.805,6.029,13.3015,4.60069,2470.53,2022-7-09T14:43:35Z
2022-07-09T12:44:52Z,42.805,6.029,13.3029,4.60092,2470.507,2022-7-09T14:46:38Z
2022-07-09T12:47:55Z,42.805,6.029,13.3024,4.60092,2470.53,2022-7-09T14:49:41Z
2022-07-09T12:50:58Z,42.805,6.029,13.3026,4.60077,2470.544,2022-7-09T14:52:44Z
2022-07-09T12:54:01Z,42.805,6.029,13.3031,4.60067,2470.507,2022-7-09T14:55:47Z
2022-07-09T12:57:05Z,42.805,6.029,13.3029,4.60087,2470.567,2022-7-09T14:58:50Z
2022-07-09T13:00:08Z,42.805,6.029,13.3021,4.60089,2470.507,2022-7-09T15:01:53Z
2022-07-09T13:03:11Z,42.805,6.029,13.3017,4.60093,2470.53,2022-7-09T15:04:57Z
2022-07-09T13:06:14Z,42.805,6.029,13.3023,4.60089,2470.507,2022-7-09T15:08:00Z
2022-07-09T13:09:17Z,42.805,6.029,13.3021,4.60085,2470.53,2022-7-09T15:11:03Z
2022-07-09T13:12:20Z,42.805,6.029,13.3023,4.60079,2470.544,2022-7-09T15:14:06Z
2022-07-09T13:15:23Z,42.805,6.029,13.3009,4.60059,2470.544,2022-7-09T15:17:09Z
2022-07-09T13:18:26Z,42.805,6.029,13.3014,4.60062,2470.567,2022-7-09T15:20:12Z
2022-07-09T13:21:30Z,42.805,6.029,13.3022,4.60059,2470.53,2022-7-09T15:23:15Z
2022-07-09T13:24:33Z,42.805,6.029,13.3031,4.60082,2470.577,2022-7-09T15:26:18Z
2022-07-09T13:27:36Z,42.805,6.029,13.3031,4.60084,2470.53,2022-7-09T15:29:21Z
2022-07-09T13:30:39Z,42.805,6.029,13.3026,4.60080,2470.591,2022-7-09T15:32:25Z
2022-07-09T13:33:42Z,42.805,6.029,13.3022,4.60079,2470.53,2022-7-09T15:35:28Z
2022-07-09T13:36:45Z,42.805,6.029,13.3028,4.60076,2470.553,2022-7-09T15:38:31Z
2022-07-09T13:39:48Z,42.805,6.029,13.3026,4.60074,2470.567,2022-7-09T15:41:34Z
2022-07-09T13:42:51Z,42.805,6.029,13.3025,4.60081,2470.553,2022-7-09T15:44:37Z
2022-07-09T13:45:54Z,42.805,6.029,13.3025,4.60098,2470.553,2022-7-09T15:47:40Z
2022-07-09T13:48:58Z,42.805,6.029,13.3029,4.60064,2470.553,2022-7-09T15:50:43Z
2022-07-09T13:52:01Z,42.805,6.029,13.3021,4.60086,2470.553,2022-7-09T15:53:46Z
2022-07-09T13:55:04Z,42.805,6.029,13.3026,4.60092,2470.577,2022-7-09T15:56:50Z
2022-07-09T13:58:07Z,42.805,6.029,13.3019,4.60064,2470.577,2022-7-09T15:59:53Z
2022-07-09T14:01:10Z,42.805,6.029,13.3023,4.60077,2470.53,2022-7-09T16:02:56Z
2022-07-09T14:04:13Z,42.805,6.029,13.3021,4.60093,2470.591,2022-7-09T16:05:59Z
2022-07-09T14:07:16Z,42.805,6.029,13.3016,4.60080,2470.516,2022-7-09T16:09:02Z
2022-07-09T14:10:19Z,42.805,6.029,13.3025,4.60084,2470.591,2022-7-09T16:12:05Z
2022-07-09T14:13:23Z,42.805,6.029,13.3022,4.60084,2470.567,2022-7-09T16:15:08Z
2022-07-09T14:16:26Z,42.805,6.029,13.3020,4.60098,2470.577,2022-7-09T16:18:11Z
2022-07-09T14:19:29Z,42.805,6.029,13.3025,4.60090,2470.591,2022-7-09T16:21:15Z
2022-07-09T14:22:32Z,42.805,6.029,13.3014,4.60069,2470.553,2022-7-09T16:24:18Z
2022-07-09T14:25:35Z,42.805,6.029,13.3009,4.60048,2470.614,2022-7-09T16:27:21Z
2022-07-09T14:28:38Z,42.805,6.029,13.3010,4.60050,2470.577,2022-7-09T16:30:24Z
2022-07-09T14:31:41Z,42.805,6.029,13.3017,4.60057,2470.637,2022-7-09T16:33:27Z
2022-07-09T14:34:44Z,42.805,6.029,13.3021,4.60085,2470.6,2022-7-09T16:36:30Z
2022-07-09T14:37:48Z,42.805,6.029,13.3024,4.60085,2470.567,2022-7-09T16:39:33Z
2022-07-09T14:40:51Z,42.805,6.029,13.3011,4.60069,2470.6,2022-7-09T16:42:36Z
2022-07-09T14:43:54Z,42.805,6.029,13.3011,4.60056,2470.577,2022-7-09T16:45:40Z
2022-07-09T14:46:57Z,42.805,6.029,13.3021,4.60059,2470.577,2022-7-09T16:48:43Z
2022-07-09T14:50:00Z,42.805,6.029,13.3029,4.60092,2470.577,2022-7-09T16:51:46Z
2022-07-09T14:53:03Z,42.805,6.029,13.3034,4.60073,2470.567,2022-7-09T16:54:49Z
2022-07-09T14:56:06Z,42.805,6.029,13.3024,4.60088,2470.6,2022-7-09T16:57:52Z
2022-07-09T14:59:09Z,42.805,6.029,13.3019,4.60101,2470.6,2022-7-09T17:00:55Z
2022-07-09T15:02:13Z,42.805,6.029,13.3022,4.60092,2470.6,2022-7-09T17:03:58Z
2022-07-09T15:05:16Z,42.805,6.029,13.3024,4.60096,2470.614,2022-7-09T17:07:01Z
2022-07-09T15:08:19Z,42.805,6.029,13.3025,4.60104,2470.577,2022-7-09T17:10:04Z
2022-07-09T15:11:22Z,42.805,6.029,13.3024,4.60089,2470.6,2022-7-09T17:13:08Z
2022-07-09T15:14:25Z,42.805,6.029,13.3028,4.60097,2470.6,2022-7-09T17:16:11Z